Simultaneous Nadir Overpasses (SNOs) Predictions

Prediction of SNOs between METOP-A and TERRA Satellite Orbit:

Table of predicted SNOs for the next 14.0 days since TLE Epoch: 2/17/2018
Index Date (METOP-A) Time (METOP-A) Lat,Lon (METOP-A) SZA (METOP-A ) Date (TERRA) Time (TERRA) Lat,Lon (TERRA) SZA (TERRA ) Distance(km) Time Diff (sec)
1 02/19/2018 13:40:55 81.39, 23.66 95.04 02/19/2018 13:41:05 81.39, 23.70 95.05 0.69 10
2 02/19/2018 14:31:34 -81.40,-168.46 84.92 02/19/2018 14:30:31 -81.41,-168.34 84.93 2.29 63
3 02/22/2018 09:15:12 81.39, 90.19 94.05 02/22/2018 09:15:19 81.39, 90.13 94.04 1.11 7
4 02/22/2018 10:05:52 -81.40,-102.30 85.95 02/22/2018 10:04:46 -81.39,-102.26 85.98 1.02 66
5 02/25/2018 04:49:30 81.40, 156.70 93.04 02/25/2018 04:49:34 81.39, 156.54 93.02 2.80 4
6 02/25/2018 05:40:10 -81.40, -35.77 86.96 02/25/2018 05:39:01 -81.39, -35.83 87.00 1.37 69
7 02/27/2018 23:33:17 -81.36, 51.95 88.41 02/27/2018 23:34:31 -81.22, 52.24 88.45 15.94 74
8 02/28/2018 00:23:48 81.40,-136.81 92.01 02/28/2018 00:23:48 81.40,-136.69 92.03 2.15 0
9 02/28/2018 01:14:28 -81.40, 30.75 87.98 02/28/2018 01:13:16 -81.39, 30.57 88.04 3.20 72
10 03/02/2018 19:07:25 -81.39, 122.01 89.06 03/02/2018 19:08:36 -81.40, 122.02 89.02 0.82 71
11 03/02/2018 19:58:05 81.40, -70.33 90.97 03/02/2018 19:58:02 81.40, -70.34 90.97 0.56 3




NCC Satellite Simultaneous Nadir Overpasses (SNOs) Prediction Service
